TV
NORAD ID: 25880
Int'l Code: 1999-042A
Perigee: 35,787.2 km
Apogee: 35,801.5 km
Inclination: 0.0 °
Period: 1,436.1 minutes
Semi major axis: 42165 km
Launch date: August 12, 1999
Source: Indonesia (INDO)
Comments: TV broadcasting in Indonesia.
Two Line Element Set (TLE):
1 25880U 99042A 13135.71436751 -.00000346 00000-0 10000-3 0 5246
2 25880 000.0089 197.2137 0001705 244.1805 157.3889 01.00269600 50458
Source: AFSPC
NASA's NSSDC Master Catalog entry for TELKOM 1